Location: Follega
(52.8850°N, 5.7362°E)
Time: 10:38:08
(UTC+00:00)

CARTOSAT-1 - Pass Details

Date: 04 October 2020
Orbit: 616 x 619 km, 97.8° (Epoch: 20 October)

Event Time Altitude Azimuth Distance (km) Brightness Sun altitude
Exits shadow 20:07:18 20° 18° (NNE) 1,467 5.6 -27.2°
Drops below altitude 10° 20:08:55 10° 3° (N) 1,994 6.5 -27.4°
Sets 20:11:18 0° 353° (N) 2,904 7.5 -27.7°
